Station QPTR1 - 8454049 - Quonset Point, RI Image indicating link to RSS feed of recent meteorological observations for station QPTR1


Conditions at QPTR1 as of
(2:30 am EDT)
0630 GMT on 06/17/2024:
     

Click on the graph icon in the table below to see a time series plot of the last five days of that observation.

5-day plot - Wind Direction Wind Direction (WDIR):WSW ( 240 deg true )
5-day plot - Wind Speed Wind Speed (WSPD): 7.0 kts
5-day plot - Wind Gust Wind Gust (GST): 8.0 kts
5-day plot - Atmospheric Pressure Atmospheric Pressure (PRES):30.24 in
5-day plot - Air Temperature Air Temperature (ATMP): 62.1 °F
5-day plot - Wind Speed at 10 Meters Wind Speed at 10 meters (WSPD10M): 7.8 kts
5-day plot - Wind Speed at 20 Meters Wind Speed at 20 meters (WSPD20M): 7.8 kts
5-day plot -  Wind Speed, Wind Gust and Atmospheric Pressure Combined plot of Wind Speed, Gust, and Air Pressure
NOS Water Level Observation Network Water Level
Previous observations
TIME
(EDT)
5-day plot - Wind Direction
WDIR
 
5-day plot - Wind Speed
WSPD
kts
5-day plot - Wind Gust
GST
kts
5-day plot - Wave Height
WVHT
ft
5-day plot - Dominant Wave Period
DPD
sec
5-day plot - Average Wave Period
APD
sec
5-day plot - Mean Wave Direction
MWD
 
5-day plot - Atmospheric Pressure
PRES
in
5-day plot - Pressure Tendency
PTDY
in
5-day plot - Air Temperature
ATMP
°F
5-day plot - Water Temperature
WTMP
°F
5-day plot - Dew Point
DEWP
°F
5-day plot - Salinity
SAL
psu
5-day plot - Visibility
VIS
nmi
5-day plot - Tide (above MLLW)
TIDE
ft
2024-06-17 02:24 amWSW 6.0 7.0----30.24- 62.1-----
2024-06-17 02:18 am SW 6.0 7.0----30.24- 62.2-----
2024-06-17 02:12 am SW 6.0 7.0----30.24- 62.2-----
2024-06-17 02:06 am SW 6.0 7.0----30.24- 62.4-----
2024-06-17 02:00 am SW 6.0 7.0----30.24+0.00 62.4-----
2024-06-17 01:54 am SW 6.0 8.0----30.24- 62.4-----
2024-06-17 01:48 amWSW 7.0 8.0----30.24- 62.2-----
2024-06-17 01:42 am SW 6.0 7.0----30.24- 62.2-----
2024-06-17 01:36 amWSW 6.0 8.0----30.24- 62.2-----
2024-06-17 01:30 amWSW 7.0 8.0----30.24- 62.6-----
2024-06-17 01:24 am SW 7.0 8.0----30.24- 62.4-----
2024-06-17 01:18 am SW 7.0 8.0------ 62.4-----
2024-06-17 01:12 am SW 7.0 8.0------ 62.4-----
2024-06-17 01:06 am SW 6.0 8.0------ 62.2-----
2024-06-17 01:00 amWSW 7.0 8.0----30.24-0.01------
2024-06-17 12:54 am SW 7.0 8.0----30.24-------
2024-06-17 12:48 am SW 7.0 8.9----30.24-------
2024-06-17 12:42 amWSW 8.0 8.9----30.24-------
2024-06-17 12:36 am SW 8.0 8.9----30.24-------
2024-06-17 12:30 am SW 7.0 8.0----30.24-------
2024-06-17 12:24 amWSW 7.0 8.0----30.24-------
2024-06-17 12:18 amWSW 7.0 8.9----30.24- 61.9-----
2024-06-17 12:12 amWSW 7.0 8.0----30.24- 61.9-----
2024-06-17 12:06 amWSW 7.0 8.9----30.24- 61.9-----
2024-06-17 12:00 am-------30.24+0.00 61.9-----
2024-06-16 11:54 pm-------30.24- 62.1-----
2024-06-16 11:48 pmWSW 8.0 8.9----30.24-------
2024-06-16 11:42 pm SW 7.0 8.0----30.24-------
2024-06-16 11:36 pmWSW 7.0 8.9----30.24-------
2024-06-16 11:30 pm SW 7.0 8.9----30.24- 62.6-----
2024-06-16 11:24 pm SW 8.0 8.9----30.24- 62.4-----
2024-06-16 11:18 pmWSW 8.0 8.9----30.24- 62.4-----
2024-06-16 11:12 pm SW 8.0 8.9----30.24- 62.4-----
2024-06-16 11:06 pm SW 7.0 8.0----30.24- 62.4-----
2024-06-16 11:00 pm SW 6.0 8.0----30.24+0.00 62.4-----
2024-06-16 10:54 pm SW 6.0 8.0----30.24- 62.6-----
2024-06-16 10:48 pm SW 6.0 8.0----30.24- 62.8-----
2024-06-16 10:42 pm SW 7.0 8.0----30.25- 62.6-----
2024-06-16 10:36 pmWSW 6.0 8.0----30.25- 62.4-----
2024-06-16 10:30 pm SW 8.0 8.9----30.25- 62.6-----
2024-06-16 10:24 pmWSW 7.0 9.9----30.25- 62.8-----
2024-06-16 10:18 pmSSW 8.9 9.9----30.25- 63.5-----
2024-06-16 10:12 pm SW 8.9 9.9----30.25- 63.5-----
2024-06-16 10:06 pm SW 8.9 11.1----30.25- 63.7-----
2024-06-16 10:00 pm SW 8.9 11.1----30.25+0.02 63.9-----
2024-06-16 09:54 pm SW 8.0 9.9----30.25- 63.9-----
2024-06-16 09:48 pm SW 8.9 9.9----30.25- 63.7-----
2024-06-16 09:42 pm SW 8.0 9.9----30.25- 63.9-----
2024-06-16 09:36 pm SW 8.9 11.1----30.26- 64.0-----
2024-06-16 09:30 pmSSW 9.9 12.0------ 64.2-----
2024-06-16 09:24 pmSSW 9.9 11.1------ 64.4-----
2024-06-16 09:18 pmSSW 9.9 12.0------ 64.2-----
2024-06-16 09:12 pmSSW 9.9 12.0------ 64.2-----
2024-06-16 09:06 pmSSW 8.9 11.1------ 64.4-----
2024-06-16 09:00 pmSSW 9.9 12.0----30.24+0.01------
2024-06-16 08:54 pmSSW 11.1 12.0----30.24-------
2024-06-16 08:48 pmSSW 11.1 13.0----30.24-------
2024-06-16 08:42 pmSSW 9.9 12.0----30.24-------
2024-06-16 08:36 pmSSW 9.9 11.1----30.24-------
2024-06-16 08:30 pmSSW 9.9 11.1----30.25-------
2024-06-16 08:24 pmSSW 9.9 11.1----30.24-------
2024-06-16 08:18 pmSSW 8.9 11.1----30.24- 64.8-----
2024-06-16 08:12 pmSSW 9.9 12.0----30.25- 64.8-----
2024-06-16 08:06 pmSSW 11.1 14.0----30.25- 64.9-----
2024-06-16 08:00 pmSSW 13.0 14.0----30.24+0.00 65.1-----
2024-06-16 07:54 pm S 13.0 14.0----30.24- 65.3-----
2024-06-16 07:48 pm S 12.0 14.0----30.24- 65.5-----
2024-06-16 07:42 pm S 12.0 14.0----30.25- 65.3-----
2024-06-16 07:36 pm S 13.0 15.0----30.24- 65.5-----
2024-06-16 07:30 pm S 13.0 15.0----30.24- 65.5-----
2024-06-16 07:24 pm S 12.0 14.0----30.24- 65.5-----
2024-06-16 07:18 pm S 13.0 15.0----30.24- 65.5-----
2024-06-16 07:00 pm S 13.0 15.0----30.24+0.00------
2024-06-16 06:54 pm S 13.0 15.0----30.23-------
2024-06-16 06:48 pm S 14.0 15.0----30.23- 65.8-----
2024-06-16 06:42 pm S 14.0 15.0----30.23- 65.7-----
2024-06-16 06:36 pm S 13.0 15.0----30.23- 65.7-----
2024-06-16 06:30 pm S 13.0 15.9------ 65.8-----
2024-06-16 06:24 pm S 14.0 15.9------ 65.7-----
2024-06-16 06:18 pm S 14.0 15.0----30.23- 65.5-----
2024-06-16 06:12 pm S 13.0 15.0----30.23- 65.8-----
2024-06-16 06:06 pm S 14.0 15.9----30.23- 65.5-----
2024-06-16 06:00 pm S 13.0 15.0----30.23-0.01 65.7-----
2024-06-16 05:54 pm S 14.0 15.0----30.23- 65.5-----
2024-06-16 05:48 pm S 14.0 15.0----30.23-------
2024-06-16 05:42 pm S 13.0 15.9----30.23-------
2024-06-16 05:36 pm S 15.0 15.9----30.23-------
2024-06-16 05:30 pm S 14.0 15.9----30.23- 65.7-----
2024-06-16 05:24 pm S 15.0 17.1----30.23- 65.7-----
2024-06-16 05:18 pm S 14.0 17.1----30.23-------
2024-06-16 05:12 pm S 15.9 18.1----30.23-------
2024-06-16 05:06 pm S 15.0 17.1----30.24-------
2024-06-16 05:00 pm S 15.9 17.1----30.24+0.00 66.0-----
2024-06-16 04:54 pm S 15.0 17.1----30.24- 66.2-----
2024-06-16 04:48 pm S 15.0 17.1----30.24-------
2024-06-16 04:42 pm S 15.0 17.1----30.24-------
2024-06-16 04:36 pm S 15.9 17.1----30.24-------
2024-06-16 04:30 pm S 15.9 18.1----30.24- 66.0-----
2024-06-16 04:24 pm S 15.0 15.9----30.24- 66.2-----
2024-06-16 04:18 pm S 15.0 15.9----30.24- 66.4-----
2024-06-16 04:12 pm S 15.0 17.1----30.24- 66.4-----
2024-06-16 04:06 pm S 15.9 17.1----30.24- 66.2-----
2024-06-16 04:00 pm S 15.0 17.1----30.24-0.01 66.2-----
2024-06-16 03:54 pm S 14.0 17.1----30.24- 66.6-----
2024-06-16 03:48 pm S 15.0 17.1----30.24- 66.4-----
2024-06-16 03:42 pm S 15.0 17.1----30.24- 66.4-----
2024-06-16 03:36 pmSSW 15.0 17.1----30.24- 66.6-----
2024-06-16 03:30 pm S 15.0 17.1----30.24-------
2024-06-16 03:24 pm S 15.0 17.1----30.24-------
2024-06-16 03:18 pmSSW 15.0 17.1----30.24- 66.6-----
2024-06-16 03:12 pmSSW 14.0 17.1----30.24- 66.6-----
2024-06-16 03:06 pmSSW 14.0 15.9----30.24- 66.4-----
2024-06-16 03:00 pmSSW 15.9 17.1----30.24-0.03------
2024-06-16 02:54 pm S 14.0 15.9----30.24-------
2024-06-16 02:48 pm S 12.0 13.0----30.24-------
2024-06-16 02:42 pm S 11.1 13.0----30.24-------
2024-06-16 02:36 pm S 5.1 8.9----30.24-------
2024-06-16 02:30 pm SE 4.1 6.0----30.24- 69.4-----
2024-06-16 02:24 pm SE 5.1 8.0----30.24- 69.1-----
2024-06-16 02:18 pm SE 5.1 7.0----30.24- 68.9-----
2024-06-16 02:12 pmSSE 5.1 6.0----30.24- 68.7-----
2024-06-16 02:06 pm SE 5.1 6.0----30.24- 68.5-----
2024-06-16 02:00 pmSSE 5.1 8.0----30.24-0.03 68.4-----
2024-06-16 01:54 pm SE 5.1 6.0----30.24- 68.2-----
2024-06-16 01:48 pm SE 5.1 6.0----30.25- 68.0-----
2024-06-16 01:42 pm SE 5.1 6.0----30.25- 68.0-----
2024-06-16 01:36 pm SE 6.0 7.0----30.25- 67.6-----
2024-06-16 01:30 pm SE 5.1 7.0----30.25- 67.6-----
2024-06-16 01:24 pmESE 5.1 8.0----30.25- 67.3-----
2024-06-16 01:18 pm SE 8.0 8.9----30.25- 66.9-----
2024-06-16 01:12 pmESE 7.0 8.9----30.25- 66.7-----
2024-06-16 01:06 pm E 8.0 8.9----30.26- 67.3-----
2024-06-16 01:00 pm E 7.0 8.0----30.26-0.03 67.6-----
2024-06-16 12:54 pmENE 7.0 8.0----30.26- 67.3-----
2024-06-16 12:48 pmENE 7.0 8.0----30.26-------
2024-06-16 12:42 pmENE 6.0 7.0----30.27-------
2024-06-16 12:36 pmENE 5.1 6.0----30.27-------
2024-06-16 12:30 pmENE 6.0 6.0----30.27-------
2024-06-16 12:24 pmENE 5.1 7.0----30.27-------
2024-06-16 12:18 pmENE 5.1 6.0----30.27- 66.6-----
2024-06-16 12:12 pmENE 5.1 7.0----30.27- 66.4-----
2024-06-16 12:06 pmENE 5.1 5.1----30.27- 66.2-----
2024-06-16 12:00 pmENE 5.1 6.0----30.27+0.00 66.2-----
2024-06-16 11:54 amENE 5.1 6.0----30.27- 66.2-----
2024-06-16 11:48 am NE 5.1 6.0----30.27-------
2024-06-16 11:42 am NE 5.1 6.0----30.28-------
2024-06-16 11:36 am NE 5.1 6.0----30.27-------
2024-06-16 11:30 am NE 5.1 6.0----30.27- 65.8-----
2024-06-16 11:24 am NE 5.1 6.0----30.27- 65.7-----
2024-06-16 11:18 am NE 5.1 6.0----30.28-------
2024-06-16 11:12 am NE 5.1 7.0----30.27-------
2024-06-16 11:06 am NE 5.1 6.0----30.27-------
2024-06-16 11:00 am NE 4.1 6.0----30.27+0.01 65.3-----
2024-06-16 10:54 am NE 5.1 6.0----30.27- 65.1-----
2024-06-16 10:48 amENE 4.1 7.0----30.27-------
2024-06-16 10:42 am NE 5.1 7.0----30.27-------
2024-06-16 10:36 amENE 5.1 7.0----30.27-------
2024-06-16 10:30 am-------30.27-------
2024-06-16 10:24 am-------30.28-------
2024-06-16 10:18 amNNE 6.0 8.0----30.28- 64.4-----
2024-06-16 10:12 amNNE 6.0 8.0----30.28- 64.4-----
2024-06-16 10:06 amNNE 5.1 8.9----30.28- 64.0-----
2024-06-16 10:00 am NE 7.0 9.9----30.28+0.04------
2024-06-16 09:54 amNNE 8.0 9.9----30.28-------
2024-06-16 09:48 amNNE 7.0 9.9----30.28- 64.2-----
2024-06-16 09:42 amNNE 9.9 12.0----30.28- 63.7-----
2024-06-16 09:36 amNNE 8.0 9.9----30.28- 63.9-----
2024-06-16 09:30 amNNE 9.9 12.0----30.28- 63.5-----
2024-06-16 09:24 amNNE 8.9 11.1----30.27- 63.3-----
2024-06-16 09:18 amNNE 8.0 11.1----30.27-------
2024-06-16 09:12 amNNE 9.9 12.0----30.27-------
2024-06-16 09:06 amNNE 9.9 12.0----30.27-------
2024-06-16 09:00 amNNE 9.9 12.0----30.27+0.06 63.1-----
2024-06-16 08:54 amNNE 11.1 13.0----30.27- 62.8-----
2024-06-16 08:48 am NE 9.9 13.0----30.27- 62.8-----
2024-06-16 08:42 amNNE 11.1 12.0----30.27- 62.8-----
2024-06-16 08:36 amNNE 9.9 13.0----30.27- 62.8-----
2024-06-16 08:30 amNNE 12.0 13.0----30.27- 62.8-----
2024-06-16 08:24 amNNE 11.1 13.0----30.27- 62.8-----
2024-06-16 08:18 am-------30.27- 62.6-----
2024-06-16 08:12 am-------30.26- 62.6-----
2024-06-16 08:06 am-------30.26- 62.8-----
2024-06-16 08:00 amNNE 8.9 12.0----30.26+0.07 62.8-----
2024-06-16 07:54 amNNE 8.0 11.1----30.26- 62.4-----
2024-06-16 07:48 amNNE 7.0 11.1----30.26- 62.4-----
2024-06-16 07:42 am N 8.0 9.9----30.26- 62.2-----
2024-06-16 07:36 am N 6.0 8.0----30.25- 62.1-----
2024-06-16 07:30 am N 8.0 8.9----30.26- 61.7-----
2024-06-16 07:24 am N 6.0 8.9----30.25- 61.7-----
2024-06-16 07:18 am N 7.0 8.9----30.25-------
2024-06-16 07:12 am N 6.0 8.9----30.25-------
2024-06-16 07:06 am N 7.0 8.9----30.25-------
2024-06-16 07:00 amNNW 7.0 9.9----30.24-------
2024-06-16 06:54 am N 7.0 8.9----30.24-------
2024-06-16 06:48 am N 8.0 9.9----30.24-------
2024-06-16 06:42 am N 7.0 9.9----30.24-------
2024-06-16 06:36 am N 7.0 8.9----30.23-------
2024-06-16 06:30 am N 7.0 8.9----30.23-------
2024-06-16 06:24 amNNW 5.1 8.0----30.23-------
2024-06-16 06:18 am N 7.0 8.9----30.22- 60.1-----
2024-06-16 06:12 am N 5.1 8.0----30.22- 59.9-----
2024-06-16 06:06 am N 5.1 7.0----30.22- 59.5-----
2024-06-16 06:00 amNNW 6.0 8.0----30.22+0.05------
2024-06-16 05:54 amNNW 5.1 8.9----30.21-------
2024-06-16 05:48 am N 6.0 8.0----30.21- 59.2-----
2024-06-16 05:42 am N 6.0 8.0----30.21- 59.0-----
2024-06-16 05:36 amNNW 5.1 7.0----30.20- 58.6-----
2024-06-16 05:30 amNNW 6.0 8.0----30.20- 58.5-----
2024-06-16 05:24 amNNW 6.0 8.0----30.20- 58.6-----
2024-06-16 05:18 amNNW 6.0 8.0----30.19-------
2024-06-16 05:12 amNNW 6.0 8.9----30.19-------
2024-06-16 05:06 am N 6.0 7.0----30.19-------
2024-06-16 05:00 amNNW 6.0 8.9----30.19+0.04------
2024-06-16 04:54 amNNW 6.0 8.0----30.19-------
2024-06-16 04:48 amNNW 6.0 8.0----30.19- 59.4-----
2024-06-16 04:42 am N 6.0 8.0----30.19- 59.7-----
2024-06-16 04:36 amNNW 5.1 8.0----30.19- 59.9-----
2024-06-16 04:30 amNNW 6.0 8.0----30.19- 60.1-----
2024-06-16 04:24 am N 6.0 7.0----30.18- 60.1-----
2024-06-16 04:18 am N 6.0 12.0----30.18- 60.4-----
2024-06-16 04:12 am N 8.0 12.0----30.18- 61.7-----
2024-06-16 04:06 am N 8.0 12.0----30.18- 61.9-----
2024-06-16 04:00 am N 7.0 9.9------ 61.9-----
2024-06-16 03:54 am N 7.0 12.0------ 61.5-----
2024-06-16 03:48 am N 7.0 9.9----30.17- 61.2-----
2024-06-16 03:42 am N 6.0 8.0----30.17- 60.4-----
2024-06-16 03:36 am N 6.0 8.0----30.17- 59.9-----
2024-06-16 03:30 amNNW 6.0 8.0----30.17- 59.9-----
2024-06-16 03:24 am N 6.0 7.0----30.17- 59.7-----
2024-06-16 03:18 amNNW 5.1 6.0----30.17- 59.7-----
2024-06-16 03:12 amNNW 4.1 7.0----30.17- 60.4-----
2024-06-16 03:06 amNNW 5.1 6.0----30.16- 61.0-----
2024-06-16 03:00 amNNW 5.1 6.0----30.16+0.04 61.9-----
2024-06-16 02:54 amNNW 5.1 8.0----30.16- 62.4-----